Weather History for Lebanon, NH

Change the Weather History Date:

Monday, October 24, 2011

  Actual Average Record
Temperature  
Mean Temperature 44 °F -  
Max Temperature 57 °F 58 °F 75 °F (1963)
Min Temperature 32 °F 33 °F 16 °F (1969)
Degree Days  
Heating Degree Days 20    
Moisture  
Dew Point 36 °F    
Average Humidity 87    
Maximum Humidity 100    
Minimum Humidity 57    
Precipitation  
Precipitation 0.00 in - - ()
Sea Level Pressure  
Sea Level Pressure 30.07 in    
Wind  
Wind Speed 1 mph (South)    
Max Wind Speed 13 mph    
Max Gust Speed 16 mph    
Visibility 4 miles    
Events Fog    
Averages and records for this station are not official NWS values.
T = Trace of Precipitation, MM = Missing Value Source: NWS Daily Summary

Daily Weather History Graph

Daily Weather History Graph

Search for Another Location

Airport:

Trip Planner

Search our weather history database for the weather conditions in past years. The results will help you decide how hot, cold, wet, or windy it might be!

Date:

Astronomy

Oct. 24, 2011 Rise Set
Actual Time 7:14 AM EDT 5:51 PM EDT
Civil Twilight 6:44 AM EDT 6:21 PM EDT
Nautical Twilight 6:11 AM EDT 6:54 PM EDT
Astronomical Twilight 5:38 AM EDT 7:27 PM EDT
Moon 4:25 AM EDT (10/24) 4:17 PM EDT (10/24)
Length of Visible Light 11h 36m
Length of Day
10h 37m
Waning Crescent, 7% of the Moon is Illuminated
Oct 24
Waning Crescent
Oct 26
New
Nov 2
First Quarter
Nov 10
Full
Nov 18
Last Quarter

Hourly Weather History & Observations

Time (EDT) Temp. Windchill Dew Point Humidity Pressure Visibility Wind Dir Wind Speed Gust Speed Precip Events Conditions
12:53 AM 34.0 °F - 32.0 °F 92% 30.15 in 7.0 mi Calm Calm - N/A   Clear
1:53 AM 32.0 °F - 30.0 °F 92% 30.14 in 6.0 mi Calm Calm - N/A   Clear
2:53 AM 32.0 °F - 30.0 °F 92% 30.13 in 5.0 mi Calm Calm - N/A   Clear
3:17 AM 32.0 °F - 30.2 °F 93% 30.11 in 5.0 mi Calm Calm - N/A   Scattered Clouds
3:30 AM 32.0 °F - 30.2 °F 93% 30.11 in 1.5 mi Calm Calm - N/A   Mostly Cloudy
3:37 AM 32.0 °F - 30.2 °F 93% 30.11 in 0.2 mi Calm Calm - N/A Fog Fog
3:53 AM 32.0 °F - 30.9 °F 96% 30.13 in 0.2 mi Calm Calm - N/A Fog Fog
3:57 AM 32.0 °F - 30.2 °F 93% 30.12 in 1.0 mi Calm Calm - N/A   Mist
4:05 AM 33.8 °F - 32.0 °F 93% 30.11 in 0.5 mi Calm Calm - N/A Fog Fog
4:12 AM 33.8 °F - 32.0 °F 93% 30.11 in 0.2 mi Calm Calm - N/A Fog Fog
4:36 AM 33.8 °F - 32.0 °F 93% 30.11 in 0.5 mi Calm Calm - N/A Fog Fog
4:50 AM 33.8 °F - 32.0 °F 93% 30.11 in 0.2 mi Calm Calm - N/A Fog Fog
4:53 AM 33.1 °F - 32.0 °F 96% 30.12 in 0.5 mi Calm Calm - N/A Fog Fog
5:02 AM 33.8 °F - 32.0 °F 93% 30.11 in 2.0 mi Calm Calm - N/A   Overcast
5:12 AM 33.8 °F - 32.0 °F 93% 30.11 in 1.0 mi Calm Calm - N/A   Mist
5:19 AM 33.8 °F - 32.0 °F 93% 30.11 in 0.2 mi Calm Calm - N/A Fog Fog
5:37 AM 33.8 °F - 33.8 °F 100% 30.12 in 0.2 mi Calm Calm - N/A Fog Fog
5:48 AM 33.8 °F - 33.8 °F 100% 30.12 in 0.2 mi Calm Calm - N/A Fog Fog
5:53 AM 34.0 °F 31.0 °F 33.1 °F 96% 30.13 in 0.2 mi SSE 3.5 mph - N/A Fog Fog
6:53 AM 33.1 °F - 32.0 °F 96% 30.13 in 0.2 mi Calm Calm - N/A Fog Fog
7:53 AM 34.0 °F - 33.1 °F 96% 30.13 in 0.2 mi Calm Calm - N/A Fog Fog
8:02 AM 33.8 °F - 33.8 °F 100% 30.11 in 0.2 mi Calm Calm - N/A Fog Fog
8:49 AM 33.8 °F - 33.8 °F 100% 30.11 in 0.2 mi Calm Calm - N/A Fog Fog
8:53 AM 34.0 °F - 33.1 °F 96% 30.13 in 0.2 mi Calm Calm - N/A Fog Fog
9:53 AM 35.1 °F - 34.0 °F 96% 30.13 in 0.2 mi Calm Calm - N/A Fog Fog
10:02 AM 35.6 °F - 33.8 °F 93% 30.11 in 0.5 mi Calm Calm - N/A Fog Fog
10:31 AM 35.6 °F - 35.6 °F 100% 30.10 in 1.0 mi Calm Calm - N/A   Overcast
10:53 AM 37.9 °F - 36.0 °F 93% 30.12 in 1.0 mi Calm Calm - N/A   Overcast
10:55 AM 37.4 °F - 35.6 °F 93% 30.09 in 5.0 mi Calm Calm - N/A   Scattered Clouds
11:53 AM 45.0 °F - 37.0 °F 74% 30.09 in 8.0 mi Calm Calm - N/A   Scattered Clouds
12:53 PM 51.1 °F - 39.9 °F 66% 30.04 in 9.0 mi Variable 3.5 mph - N/A   Clear
1:53 PM 54.0 °F - 39.9 °F 59% 30.00 in 9.0 mi Calm Calm - N/A   Clear
2:53 PM 57.0 °F - 42.1 °F 57% 29.96 in 10.0 mi SSW 8.1 mph - N/A   Clear
3:53 PM 57.9 °F - 43.0 °F 58% 29.94 in 10.0 mi SSW 9.2 mph - N/A   Mostly Cloudy
4:53 PM 55.9 °F - 44.1 °F 64% 29.92 in 10.0 mi South 6.9 mph - N/A   Partly Cloudy
5:53 PM 55.9 °F - 43.0 °F 62% 29.92 in 10.0 mi SSW 10.4 mph - N/A   Clear
6:53 PM 55.0 °F - 44.1 °F 67% 29.92 in 10.0 mi South 10.4 mph - N/A   Mostly Cloudy
7:53 PM 54.0 °F - 44.1 °F 69% 29.91 in 10.0 mi South 12.7 mph - N/A   Overcast
8:53 PM 54.0 °F - 44.1 °F 69% 29.91 in 10.0 mi South 5.8 mph 16.1 mph 0.00 in   Overcast
9:53 PM 52.0 °F - 46.0 °F 80% 29.93 in 10.0 mi South 8.1 mph - 0.00 in   Overcast
10:53 PM 48.2 °F - 46.4 °F 93% 29.90 in 8.0 mi SSE 4.6 mph - N/A   Overcast
11:53 PM 48.9 °F - 46.9 °F 93% 29.91 in 8.0 mi South 4.6 mph - 0.00 in   Overcast